Time,TemperatureF,DewpointF,PressureIn,WindDirection,WindDirectionDegrees,WindSpeedMPH,WindSpeedGustMPH,Humidity,HourlyPrecipIn,Conditions,Clouds,dailyrainin,SoftwareType,DateUTC
2013-03-01 00:02:00,31.0,29.0,30.05,North,358,6.0,15.0,94,0.00,,,0.01,,2013-03-01 06:02:00,
2013-03-01 00:11:00,31.0,29.0,30.05,North,358,6.0,15.0,94,0.00,,,0.01,,2013-03-01 06:11:00,
2013-03-01 00:22:00,31.0,30.0,30.05,NNW,344,7.0,14.0,95,0.00,,,0.01,,2013-03-01 06:22:00,
2013-03-01 00:32:00,31.0,30.0,30.05,North,5,8.0,14.0,95,0.00,,,0.01,,2013-03-01 06:32:00,
2013-03-01 00:42:00,31.0,30.0,30.05,North,5,8.0,14.0,95,0.00,,,0.01,,2013-03-01 06:42:00,
2013-03-01 00:52:00,31.0,30.0,30.05,North,0,6.0,13.0,96,0.00,,,0.01,,2013-03-01 06:52:00,
2013-03-01 01:02:00,30.0,28.0,30.05,NNE,16,10.0,17.0,94,0.00,,,0.01,,2013-03-01 07:02:00,
2013-03-01 01:11:00,30.0,28.0,30.05,NNE,16,10.0,17.0,94,0.00,,,0.01,,2013-03-01 07:11:00,
2013-03-01 01:22:00,30.0,29.0,30.05,NNE,25,9.0,15.0,95,0.00,,,0.01,,2013-03-01 07:22:00,
2013-03-01 01:32:00,30.0,29.0,30.05,North,7,7.0,12.0,96,0.00,,,0.01,,2013-03-01 07:32:00,
2013-03-01 01:42:00,30.0,29.0,30.05,North,7,7.0,12.0,96,0.00,,,0.01,,2013-03-01 07:42:00,
2013-03-01 01:52:00,30.0,29.0,30.04,North,0,9.0,14.0,96,0.00,,,0.01,,2013-03-01 07:52:00,
2013-03-01 02:02:00,30.0,28.0,30.04,NNE,18,9.0,15.0,94,0.00,,,0.01,,2013-03-01 08:02:00,
2013-03-01 02:11:00,30.0,28.0,30.04,NNE,18,9.0,15.0,94,0.00,,,0.01,,2013-03-01 08:11:00,
2013-03-01 02:22:00,30.0,29.0,30.04,NNW,332,7.0,14.0,95,0.00,,,0.01,,2013-03-01 08:22:00,
2013-03-01 02:32:00,29.0,28.0,30.04,North,352,7.0,13.0,95,0.00,,,0.01,,2013-03-01 08:32:00,
2013-03-01 02:42:00,29.0,28.0,30.04,North,352,7.0,13.0,95,0.00,,,0.01,,2013-03-01 08:42:00,
2013-03-01 02:52:00,29.0,28.0,30.04,North,352,6.0,10.0,95,0.00,,,0.01,,2013-03-01 08:52:00,
2013-03-01 03:02:00,29.0,28.0,30.04,NNW,346,9.0,14.0,96,0.00,,,0.01,,2013-03-01 09:02:00,
2013-03-01 03:12:00,29.0,28.0,30.04,NNW,346,9.0,14.0,96,0.00,,,0.01,,2013-03-01 09:12:00,
2013-03-01 03:22:00,28.0,26.0,30.04,North,349,9.0,17.0,93,0.00,,,0.01,,2013-03-01 09:22:00,
2013-03-01 03:32:00,28.0,26.0,30.04,NNW,336,7.0,16.0,92,0.00,,,0.01,,2013-03-01 09:32:00,
2013-03-01 03:42:00,28.0,26.0,30.04,NNW,336,7.0,16.0,92,0.00,,,0.01,,2013-03-01 09:42:00,
2013-03-01 03:52:00,28.0,26.0,30.04,North,352,7.0,15.0,93,0.00,,,0.01,,2013-03-01 09:52:00,
2013-03-01 04:02:00,27.0,24.0,30.04,North,355,11.0,20.0,90,0.00,,,0.01,,2013-03-01 10:02:00,
2013-03-01 04:11:00,27.0,24.0,30.04,North,355,11.0,20.0,90,0.00,,,0.01,,2013-03-01 10:11:00,
2013-03-01 04:22:00,27.0,24.0,30.04,NNW,334,8.0,20.0,90,0.00,,,0.01,,2013-03-01 10:22:00,
2013-03-01 04:32:00,27.0,25.0,30.04,NNW,346,12.0,17.0,92,0.00,,,0.01,,2013-03-01 10:32:00,
2013-03-01 04:42:00,27.0,25.0,30.04,NNW,346,12.0,17.0,92,0.00,,,0.01,,2013-03-01 10:42:00,
2013-03-01 04:52:00,27.0,25.0,30.05,NNW,339,11.0,21.0,92,0.00,,,0.01,,2013-03-01 10:52:00,
2013-03-01 05:01:00,26.0,25.0,30.05,NW,315,10.0,22.0,95,0.00,,,0.01,,2013-03-01 11:01:00,
2013-03-01 05:11:00,26.0,25.0,30.05,NW,315,10.0,22.0,95,0.00,,,0.01,,2013-03-01 11:11:00,
2013-03-01 05:22:00,26.0,25.0,30.05,NW,325,10.0,20.0,95,0.00,,,0.01,,2013-03-01 11:22:00,
2013-03-01 05:32:00,26.0,25.0,30.05,NNW,340,10.0,17.0,96,0.00,,,0.01,,2013-03-01 11:32:00,
2013-03-01 05:42:00,26.0,25.0,30.05,NNW,340,10.0,17.0,96,0.00,,,0.01,,2013-03-01 11:42:00,
2013-03-01 05:52:00,26.0,25.0,30.05,NNW,338,9.0,16.0,96,0.00,,,0.01,,2013-03-01 11:52:00,
2013-03-01 06:01:00,26.0,25.0,30.05,NNW,333,10.0,20.0,96,0.00,,,0.01,,2013-03-01 12:01:00,
2013-03-01 06:11:00,26.0,25.0,30.05,NNW,333,10.0,20.0,96,0.00,,,0.01,,2013-03-01 12:11:00,
2013-03-01 06:21:00,26.0,25.0,30.05,NNW,347,9.0,17.0,96,0.00,,,0.01,,2013-03-01 12:21:00,
2013-03-01 06:32:00,26.0,25.0,30.06,North,349,10.0,18.0,96,0.00,,,0.01,,2013-03-01 12:32:00,
2013-03-01 06:42:00,26.0,25.0,30.06,North,349,10.0,18.0,96,0.00,,,0.01,,2013-03-01 12:42:00,
2013-03-01 06:52:00,26.0,25.0,30.06,North,357,12.0,18.0,97,0.00,,,0.01,,2013-03-01 12:52:00,
2013-03-01 07:01:00,25.0,24.0,30.06,North,356,13.0,21.0,97,0.00,,,0.01,,2013-03-01 13:01:00,
2013-03-01 07:11:00,25.0,24.0,30.06,North,356,13.0,21.0,97,0.00,,,0.01,,2013-03-01 13:11:00,
2013-03-01 07:21:00,26.0,25.0,30.07,NNW,338,11.0,18.0,97,0.00,,,0.01,,2013-03-01 13:21:00,
2013-03-01 07:32:00,26.0,25.0,30.07,NNW,341,11.0,18.0,97,0.00,,,0.01,,2013-03-01 13:32:00,
2013-03-01 07:42:00,26.0,25.0,30.07,NNW,341,11.0,18.0,97,0.00,,,0.01,,2013-03-01 13:42:00,
2013-03-01 07:52:00,26.0,25.0,30.07,NNW,329,11.0,23.0,96,0.00,,,0.01,,2013-03-01 13:52:00,
2013-03-01 08:01:00,26.0,25.0,30.08,NNW,340,12.0,20.0,97,0.00,,,0.01,,2013-03-01 14:01:00,
2013-03-01 08:11:00,26.0,25.0,30.08,NNW,340,12.0,20.0,97,0.00,,,0.01,,2013-03-01 14:11:00,
2013-03-01 08:21:00,26.0,25.0,30.08,NW,326,12.0,25.0,97,0.00,,,0.01,,2013-03-01 14:21:00,
2013-03-01 08:32:00,26.0,25.0,30.08,NNW,348,16.0,23.0,97,0.00,,,0.01,,2013-03-01 14:32:00,
2013-03-01 08:41:00,26.0,25.0,30.08,NNW,348,16.0,23.0,97,0.00,,,0.01,,2013-03-01 14:41:00,
2013-03-01 08:52:00,26.0,25.0,30.08,NNW,338,16.0,25.0,96,0.00,,,0.01,,2013-03-01 14:52:00,
2013-03-01 09:01:00,26.0,25.0,30.08,NNW,337,13.0,26.0,96,0.00,,,0.01,,2013-03-01 15:01:00,
2013-03-01 09:11:00,27.0,26.0,30.08,NNW,339,12.0,22.0,96,0.00,,,0.01,,2013-03-01 15:11:00,
2013-03-01 09:21:00,27.0,26.0,30.08,NNW,339,12.0,22.0,96,0.00,,,0.01,,2013-03-01 15:21:00,
2013-03-01 09:32:00,26.0,25.0,30.09,NNW,340,12.0,22.0,96,0.00,,,0.01,,2013-03-01 15:32:00,
2013-03-01 09:42:00,26.0,25.0,30.09,NNW,340,12.0,22.0,96,0.00,,,0.01,,2013-03-01 15:42:00,
2013-03-01 09:52:00,26.0,25.0,30.09,North,354,13.0,23.0,96,0.00,,,0.00,,2013-03-01 15:52:00,
2013-03-01 10:01:00,27.0,26.0,30.09,NNW,336,12.0,22.0,96,0.00,,,0.00,,2013-03-01 16:01:00,
2013-03-01 10:11:00,27.0,26.0,30.09,NNW,336,12.0,22.0,96,0.00,,,0.00,,2013-03-01 16:11:00,
2013-03-01 10:21:00,27.0,26.0,30.10,North,2,14.0,23.0,96,0.00,,,0.00,,2013-03-01 16:21:00,
2013-03-01 10:32:00,27.0,26.0,30.10,NNW,331,12.0,20.0,95,0.00,,,0.00,,2013-03-01 16:32:00,
2013-03-01 10:42:00,27.0,26.0,30.10,NNW,331,12.0,20.0,95,0.00,,,0.00,,2013-03-01 16:42:00,
2013-03-01 10:51:00,28.0,27.0,30.10,North,0,10.0,21.0,96,0.00,,,0.00,,2013-03-01 16:51:00,
2013-03-01 11:01:00,28.0,27.0,30.11,North,1,13.0,22.0,95,0.00,,,0.00,,2013-03-01 17:01:00,
2013-03-01 11:11:00,28.0,27.0,30.11,North,1,13.0,22.0,95,0.00,,,0.00,,2013-03-01 17:11:00,
2013-03-01 11:21:00,28.0,27.0,30.11,NNW,329,12.0,21.0,95,0.00,,,0.00,,2013-03-01 17:21:00,
2013-03-01 11:32:00,29.0,28.0,30.11,North,350,10.0,21.0,95,0.00,,,0.00,,2013-03-01 17:32:00,
2013-03-01 11:41:00,29.0,28.0,30.11,North,350,10.0,21.0,95,0.00,,,0.00,,2013-03-01 17:41:00,
2013-03-01 11:52:00,29.0,27.0,30.11,North,3,12.0,21.0,92,0.00,,,0.00,,2013-03-01 17:52:00,
2013-03-01 12:01:00,30.0,28.0,30.11,North,358,10.0,20.0,94,0.00,,,0.00,,2013-03-01 18:01:00,
2013-03-01 12:12:00,30.0,28.0,30.11,North,358,10.0,20.0,94,0.00,,,0.00,,2013-03-01 18:12:00,
2013-03-01 12:22:00,30.0,28.0,30.11,NNW,345,12.0,23.0,91,0.00,,,0.00,,2013-03-01 18:22:00,
2013-03-01 12:32:00,29.0,27.0,30.11,North,6,14.0,22.0,92,0.00,,,0.00,,2013-03-01 18:32:00,
2013-03-01 12:42:00,29.0,27.0,30.11,North,6,14.0,22.0,92,0.00,,,0.00,,2013-03-01 18:42:00,
2013-03-01 12:52:00,30.0,28.0,30.11,North,5,13.0,25.0,92,0.00,,,0.00,,2013-03-01 18:52:00,
2013-03-01 13:01:00,30.0,28.0,30.11,North,355,12.0,22.0,91,0.00,,,0.00,,2013-03-01 19:01:00,
2013-03-01 13:11:00,30.0,28.0,30.11,North,355,12.0,22.0,91,0.00,,,0.00,,2013-03-01 19:11:00,
2013-03-01 13:21:00,29.0,27.0,30.11,NNW,331,14.0,26.0,91,0.00,,,0.00,,2013-03-01 19:21:00,
2013-03-01 13:32:00,29.0,26.0,30.11,North,0,16.0,26.0,89,0.00,,,0.00,,2013-03-01 19:32:00,
2013-03-01 13:42:00,29.0,26.0,30.11,North,0,16.0,26.0,89,0.00,,,0.00,,2013-03-01 19:42:00,
2013-03-01 13:51:00,30.0,27.0,30.10,NNW,346,13.0,24.0,90,0.00,,,0.00,,2013-03-01 19:51:00,
2013-03-01 14:01:00,30.0,27.0,30.10,NNW,336,11.0,29.0,90,0.00,,,0.00,,2013-03-01 20:01:00,
2013-03-01 14:11:00,30.0,27.0,30.10,NNW,336,11.0,29.0,90,0.00,,,0.00,,2013-03-01 20:11:00,
2013-03-01 14:21:00,29.0,26.0,30.10,NNW,330,16.0,24.0,88,0.00,,,0.00,,2013-03-01 20:21:00,
2013-03-01 14:32:00,30.0,27.0,30.10,North,352,14.0,23.0,90,0.00,,,0.00,,2013-03-01 20:32:00,
2013-03-01 14:41:00,30.0,27.0,30.10,North,352,14.0,23.0,90,0.00,,,0.00,,2013-03-01 20:41:00,
2013-03-01 14:52:00,30.0,27.0,30.11,NNW,327,14.0,23.0,90,0.00,,,0.00,,2013-03-01 20:52:00,
2013-03-01 15:01:00,30.0,27.0,30.11,NNW,335,13.0,23.0,90,0.00,,,0.00,,2013-03-01 21:01:00,
2013-03-01 15:11:00,30.0,27.0,30.11,NNW,335,13.0,23.0,90,0.00,,,0.00,,2013-03-01 21:11:00,
2013-03-01 15:21:00,30.0,27.0,30.11,NNW,348,14.0,28.0,88,0.00,,,0.00,,2013-03-01 21:21:00,
2013-03-01 15:32:00,29.0,26.0,30.12,NNW,330,14.0,26.0,90,0.00,,,0.00,,2013-03-01 21:32:00,
2013-03-01 15:41:00,29.0,26.0,30.12,NNW,330,14.0,26.0,90,0.00,,,0.00,,2013-03-01 21:41:00,
2013-03-01 15:51:00,30.0,28.0,30.12,North,356,12.0,22.0,92,0.00,,,0.00,,2013-03-01 21:51:00,
2013-03-01 16:01:00,29.0,27.0,30.12,NNW,333,14.0,23.0,93,0.00,,,0.00,,2013-03-01 22:01:00,
2013-03-01 16:11:00,29.0,27.0,30.12,NNW,333,14.0,23.0,93,0.00,,,0.00,,2013-03-01 22:11:00,
2013-03-01 16:21:00,29.0,28.0,30.13,NNW,337,9.0,24.0,95,0.00,,,0.00,,2013-03-01 22:21:00,
2013-03-01 16:32:00,28.0,27.0,30.13,NNW,342,11.0,28.0,96,0.00,,,0.00,,2013-03-01 22:32:00,
2013-03-01 16:42:00,28.0,27.0,30.13,NNW,342,11.0,28.0,96,0.00,,,0.00,,2013-03-01 22:42:00,
2013-03-01 16:51:00,28.0,27.0,30.13,NNW,336,13.0,23.0,95,0.00,,,0.00,,2013-03-01 22:51:00,
2013-03-01 17:01:00,28.0,27.0,30.14,NNW,334,13.0,23.0,95,0.00,,,0.00,,2013-03-01 23:01:00,
2013-03-01 17:11:00,28.0,27.0,30.14,NNW,334,13.0,23.0,95,0.00,,,0.00,,2013-03-01 23:11:00,
2013-03-01 17:21:00,27.0,26.0,30.14,NNW,338,13.0,28.0,96,0.00,,,0.00,,2013-03-01 23:21:00,
2013-03-01 17:31:00,27.0,26.0,30.14,NNW,338,12.0,26.0,96,0.00,,,0.00,,2013-03-01 23:31:00,
2013-03-01 17:41:00,27.0,26.0,30.14,NNW,338,12.0,26.0,96,0.00,,,0.00,,2013-03-01 23:41:00,
2013-03-01 17:52:00,27.0,26.0,30.14,NNW,341,10.0,21.0,97,0.00,,,0.00,,2013-03-01 23:52:00,
2013-03-01 18:02:00,27.0,26.0,30.15,NW,321,12.0,20.0,96,0.00,,,0.00,,2013-03-02 00:02:00,
2013-03-01 18:11:00,27.0,26.0,30.15,NW,321,12.0,20.0,96,0.00,,,0.00,,2013-03-02 00:11:00,
2013-03-01 18:22:00,27.0,26.0,30.16,NNW,328,12.0,21.0,96,0.00,,,0.00,,2013-03-02 00:22:00,
2013-03-01 18:32:00,26.0,25.0,30.16,NNW,331,11.0,22.0,97,0.00,,,0.00,,2013-03-02 00:32:00,
2013-03-01 18:42:00,26.0,25.0,30.16,NNW,331,11.0,22.0,97,0.00,,,0.00,,2013-03-02 00:42:00,
2013-03-01 18:52:00,26.0,25.0,30.17,NNW,337,12.0,23.0,97,0.00,,,0.00,,2013-03-02 00:52:00,
2013-03-01 19:01:00,26.0,25.0,30.18,North,352,12.0,21.0,96,0.00,,,0.00,,2013-03-02 01:01:00,
2013-03-01 19:11:00,26.0,25.0,30.18,North,352,12.0,21.0,96,0.00,,,0.00,,2013-03-02 01:11:00,
2013-03-01 19:21:00,26.0,25.0,30.18,NNW,329,12.0,24.0,96,0.00,,,0.00,,2013-03-02 01:21:00,
2013-03-01 19:31:00,26.0,25.0,30.19,NNW,333,15.0,25.0,96,0.00,,,0.00,,2013-03-02 01:31:00,
2013-03-01 19:41:00,26.0,25.0,30.19,NNW,333,15.0,25.0,96,0.00,,,0.00,,2013-03-02 01:41:00,
2013-03-01 19:51:00,25.0,24.0,30.19,NNW,338,13.0,28.0,96,0.00,,,0.00,,2013-03-02 01:51:00,
2013-03-01 20:01:00,25.0,24.0,30.18,North,352,12.0,24.0,96,0.00,,,0.00,,2013-03-02 02:01:00,
2013-03-01 20:11:00,25.0,24.0,30.18,North,352,12.0,24.0,96,0.00,,,0.00,,2013-03-02 02:11:00,
2013-03-01 20:22:00,25.0,24.0,30.18,NNW,335,16.0,25.0,96,0.00,,,0.00,,2013-03-02 02:22:00,
2013-03-01 20:32:00,25.0,24.0,30.19,NNW,327,12.0,24.0,95,0.00,,,0.00,,2013-03-02 02:32:00,
2013-03-01 20:42:00,25.0,24.0,30.19,NNW,327,12.0,24.0,95,0.00,,,0.00,,2013-03-02 02:42:00,
2013-03-01 20:52:00,25.0,24.0,30.19,North,353,12.0,24.0,94,0.00,,,0.00,,2013-03-02 02:52:00,
2013-03-01 21:01:00,25.0,24.0,30.19,NNW,340,16.0,28.0,94,0.00,,,0.00,,2013-03-02 03:01:00,
2013-03-01 21:11:00,25.0,24.0,30.19,NNW,340,16.0,28.0,94,0.00,,,0.00,,2013-03-02 03:11:00,
2013-03-01 21:21:00,25.0,24.0,30.19,NNW,348,16.0,29.0,94,0.00,,,0.00,,2013-03-02 03:21:00,
2013-03-01 21:32:00,25.0,24.0,30.19,NNW,337,12.0,26.0,94,0.00,,,0.00,,2013-03-02 03:32:00,
2013-03-01 21:42:00,25.0,24.0,30.19,NNW,337,12.0,26.0,94,0.00,,,0.00,,2013-03-02 03:42:00,
2013-03-01 21:52:00,25.0,24.0,30.19,North,351,14.0,29.0,94,0.00,,,0.00,,2013-03-02 03:52:00,
2013-03-01 22:01:00,25.0,24.0,30.18,NNW,343,15.0,24.0,95,0.00,,,0.00,,2013-03-02 04:01:00,
2013-03-01 22:11:00,25.0,24.0,30.18,NNW,343,15.0,24.0,95,0.00,,,0.00,,2013-03-02 04:11:00,
2013-03-01 22:21:00,25.0,24.0,30.18,NNW,336,16.0,28.0,95,0.00,,,0.00,,2013-03-02 04:21:00,
2013-03-01 22:32:00,25.0,24.0,30.18,NNW,332,13.0,26.0,96,0.00,,,0.00,,2013-03-02 04:32:00,
2013-03-01 22:42:00,25.0,24.0,30.18,NNW,332,13.0,26.0,96,0.00,,,0.00,,2013-03-02 04:42:00,
2013-03-01 22:52:00,25.0,24.0,30.18,NNW,337,12.0,22.0,95,0.00,,,0.00,,2013-03-02 04:52:00,
2013-03-01 23:02:00,25.0,24.0,30.18,NNW,344,12.0,24.0,95,0.00,,,0.00,,2013-03-02 05:02:00,
2013-03-01 23:12:00,25.0,24.0,30.18,NNW,344,12.0,24.0,95,0.00,,,0.00,,2013-03-02 05:12:00,
2013-03-01 23:22:00,25.0,24.0,30.18,NW,325,14.0,23.0,95,0.00,,,0.00,,2013-03-02 05:22:00,
2013-03-01 23:32:00,25.0,24.0,30.18,NNW,328,11.0,21.0,94,0.00,,,0.00,,2013-03-02 05:32:00,
2013-03-01 23:42:00,25.0,24.0,30.18,NNW,328,11.0,21.0,94,0.00,,,0.00,,2013-03-02 05:42:00,
2013-03-01 23:52:00,25.0,23.0,30.18,NW,324,13.0,22.0,93,0.00,,,0.00,,2013-03-02 05:52:00,